SCP
-0 -0 -0 -0 -0 -0 -0 -0 -0 -0 -0 -0 -0 -0 -0 -0 -0 -0 0 0 -0 0 0 0 -0 -0 -0 0 0 0 0 0 0 0 0 0 0 0 0 0 0 -0 0 -0 -0
-0 -0 -0 -0 -0 -0 -0 -0 -0 -0 -0 -0 -0 -0 -0 -0 0 0 0 0 -0 -0 0 -0 0 0 0 0 0 0 0 0 0 0 0 -0 0 -0 0 -0 -0 -0 -0 -0 -0
-0 -0 -0 -0 -0 -0 -0 -0 -0 0 0 -0 -0 -0 -0 0 0 0 0 -0 -0 0 0 0 -0 0 0 0 0 0 -0 -0 0 0 0 0 -0 0 -0 0 -0 -0 -0 -0 -0
-0 -0 -0 -0 -0 -0 -0 -0 -0 -0 -0 -0 0 -0 -0 0 0 0 0 -0 -0 0 0 0 0 -0 0 0 -0 0 -0 0 0 0 0 0 0 0 0 0 -0 -0 -0 -0 -0
-0 -0 -0 -0 -0 -0 -0 -0 -0 -0 0 0 0 0 0 0 0 0 0 -0 0 0 0 0 0 0 0 0 0 0 -0 0 -0 -0 -0 0 0 -0 0 0 -0 -0 -0 -0 0
0 0 0 0 0 0 0 0 0 0 0 0 0 0 0 0 0 0 0 0 0 0 0 0 0 0 0 0 0 0 0 0 0 0 0 0 -0 0 0 0 -0 -0 -0 -0 -0
0 0 0 0 0 0 0 0 0 0 0 0 0 0 0 0 0 0 0 0 0 0 0 0 0 0 0 0 -0 0 0 0 0 0 0 -0 -0 0 -0 0 -0 -0 -0 -0 0
0 0 0 0 0 0 0 0 0 0 0 0 0 0 0 0 0 0 0 0 0 0 0 0 0 0 0 0 0 0 0 0 -0 0 0 0 -0 -0 -0 0 0 -0 -0 -0 0
0 0 0 0 0 0 0 0 0 0 0 0 0 0 0 0 0 0 0 0 0 0 0 0 0 0 0 0 0 0 0 0 0 0 0 0 0 -0 0 0 -0 -0 -0 0 0
0 0 0 0 0 0 0 0 -0 0 0 0 0 0 0 0 0 0 0 0 0 0 0 0 0 0 0 0 0 0 0 0 0 0 0 0 0 0 -0 0 -0 -0 0 0 -0
-0 0 0 0 0 0 0 0 0 0 0 0 0 0 0 0 0 0 0 0 0 0 0 0 0 0 0 0 0 0 -0 0 0 0 0 -0 -0 -0 -0 -0 -0 -0 -0 0 0
0 0 0 0 0 0 0 0 -0 -0 0 0 0 0 0 0 0 0 0 0 0 0 0 0 0 0 0 0 0 0 -0 0 0 -0 0 0 -0 0 0 -0 0 0 -0 0 -0
0 0 0 0 0 0 0 0 0 -0 0 0 0 0 0 0 0 0 0 0 0 0 0 0 0 0 0 0 0 0 -0 0 0 0 0 0 0 0 0 -0 -0 0 0 -0 0
0 0 0 0 0 0 0 0 0 -0 0 0 0 0 0 0 0 0 0 0 0 0 0 0 0 0 0 0 0 0 0 0 0 0 0 0 0 -0 0 0 -0 -0 0 -0 -0
0 0 0 0 0 0 0 0 0 0 0 0 0 -0 0 0 0 0 0 0 0 0 0 0 0 0 0 0 0 0 -0 0 0 0 0 0 0 -0 0 0 -0 0 -0 -0 0
0 0 0 0 0 0 0 0 0 0 0 0 0 0 0 0 0 0 0 0 0 0 0 0 0 0 0 0 0 0 0 0 0 0 0 0 0 0 0 0 0 -0 -0 -0 -0
0 -0 0 0 0 -0 0 0 0 0 0 0 0 0 0 0 0 0 0 0 0 0 0 0 0 0 0 0 0 0 0 0 0 0 0 0 0 -0 -0 0 0 0 0 -0 -0
0 -0 0 0 -0 -0 0 0 0 0 0 0 0 0 0 0 0 0 0 0 0 0 0 0 0 0 0 0 0 0 0 0 0 0 0 0 -0 0 0 0 0 0 0 0 -0
0 0 0 0 0 0 0 0 0 0 0 0 0 0 0 0 0 0 0 0 0 0 0 0 0 0 0 0 0 0 0 0 0 0 0 0 -0 0 0 0 0 0 -0 -0 -0
0 0 0 -0 0 0 0 0 0 0 0 0 0 0 0 0 0 0 0 0 0 0 0 0 0 0 0 0 0 0 0 0 0 0 0 0 0 0 0 0 0 0 0 -0 0
0 0 0 0 0 0 0 0 0 0 0 0 0 0 0 0 0 0 0 0 0 0 0 0 0 0 0 0 0 0 0 0 0 0 0 0 -0 0 0 0 0 0 0 0 0
0 0 0 0 0 0 0 0 0 0 0 0 0 0 0 0 0 0 0 0 0 0 0 0 0 0 0 0 0 0 0 0 0 0 0 0 -0 0 0 0 0 0 0 0 0
0 0 0 0 0 0 0 0 0 0 0 0 0 0 0 0 0 0 0 0 0 0 0 0 0 0 0 0 0 0 0 0 0 0 0 0 -0 0 -0 0 0 0 0 0 0
0 0 0 0 0 0 0 0 0 0 -0 -0 0 0 0 0 0 0 0 0 0 0 0 0 0 0 0 0 0 0 0 0 0 0 0 0 0 0 0 0 0 0 1 0 0
0 0 0 0 0 0 0 0 0 0 0 0 0 0 0 0 0 0 0 0 0 0 0 0 0 0 0 0 0 0 0 0 0 0 0 0 0 0 0 1 1 1 0 0 0
0 0 0 0 0 0 0 0 0 0 0 0 -0 0 -0 0 0 0 0 0 0 0 0 0 0 0 0 0 0 0 0 0 0 0 0 0 0 1 1 1 1 0 0 0 0
0 0 0 0 0 0 0 0 0 0 0 0 0 0 0 -0 0 0 0 0 0 0 0 0 0 0 0 0 0 0 0 0 0 0 0 0 1 2 2 1 1 0 0 0 0
Wind_Speed_500mb
29 29 28 27 27 25 25 24 23 22 20 19 19 21 21 22 22 24 22 3 7 19 17 26 10 11 10 3 7 16 8 6 6 4 9 9 6 5 13 29 6 5 46 55 54
29 28 29 29 29 28 27 26 26 24 23 20 20 21 21 23 23 25 19 14 10 9 22 29 8 20 6 4 6 5 6 11 5 9 7 32 13 1 13 11 21 46 57 55 52
31 30 30 30 29 29 29 28 26 26 24 21 20 20 19 19 19 6 12 15 15 13 15 24 14 16 6 10 14 11 8 8 10 15 16 18 33 13 28 11 9 53 63 60 53
34 33 33 33 33 33 33 30 27 25 24 21 19 19 17 12 9 13 9 7 23 26 23 28 22 11 7 8 17 9 13 17 24 22 16 16 15 13 16 6 19 55 62 62 56
36 35 35 36 36 37 37 32 27 25 23 21 19 16 14 14 20 17 7 12 21 30 24 22 26 11 7 6 11 4 9 14 20 22 19 28 22 19 5 13 25 52 59 59 56
37 36 36 37 38 41 40 35 29 24 22 20 18 15 14 11 26 30 26 19 12 28 29 25 14 13 15 3 2 8 23 23 20 20 18 15 8 2 10 22 41 57 59 59 54
39 37 36 37 38 41 42 36 28 24 21 19 18 17 23 41 21 30 32 24 21 24 23 19 15 17 5 6 22 24 12 10 6 10 8 31 3 10 27 31 43 59 61 63 59
41 41 38 37 39 42 39 32 28 23 16 15 16 16 20 20 51 39 32 30 32 30 20 13 6 8 9 19 6 5 8 7 5 8 12 9 9 21 32 42 41 48 61 65 64
43 42 40 37 38 40 29 30 19 12 5 8 11 10 17 17 30 40 40 39 37 28 20 18 2 9 11 10 6 10 4 4 4 14 12 8 8 13 42 31 30 53 58 65 66
45 42 39 35 34 30 28 14 13 9 7 5 11 11 17 2 5 14 34 40 28 13 17 16 11 7 5 6 9 8 6 2 7 9 9 13 11 10 39 35 36 50 50 59 69
46 42 38 34 30 20 22 6 10 3 22 18 21 28 43 28 24 13 17 31 35 13 11 12 9 12 19 12 6 8 8 6 4 8 8 14 6 20 37 33 33 41 53 57 68
43 40 36 32 24 12 19 16 19 18 23 39 49 51 52 45 18 11 21 23 21 12 11 9 11 18 14 10 7 7 3 2 2 8 6 6 12 8 28 41 47 49 50 59 67
45 39 32 27 15 6 7 19 25 24 8 21 14 20 22 28 27 31 18 20 10 14 14 15 13 13 13 9 9 4 6 5 4 7 3 10 10 11 14 30 43 53 62 56 64
40 38 33 21 5 11 2 14 20 23 10 14 7 5 5 15 12 44 24 23 4 22 17 11 11 12 13 9 12 7 14 6 14 6 3 2 7 11 16 31 25 49 67 63 61
40 39 31 20 12 3 6 15 17 7 8 20 5 11 6 13 13 22 43 15 15 13 14 16 16 14 8 13 13 13 13 10 8 7 4 5 4 11 19 21 39 51 68 78 70
35 33 26 16 9 2 7 15 1 11 8 15 11 10 7 15 9 3 12 12 10 10 6 14 5 11 20 9 13 5 8 13 10 7 4 11 9 9 12 28 27 40 53 72 74
31 24 21 16 5 7 11 5 10 8 11 18 10 15 4 7 4 6 10 11 12 11 5 4 3 3 5 11 5 10 12 4 5 3 11 6 5 20 8 12 21 42 60 72 76
22 19 27 24 18 14 10 10 7 4 10 10 11 13 12 15 7 12 6 6 7 12 7 12 7 14 6 12 15 13 17 11 11 7 7 7 12 12 18 29 45 52 74 75 83
12 12 20 18 17 22 8 9 3 8 9 14 18 12 14 12 6 7 4 7 12 15 14 11 11 7 9 9 19 9 8 14 12 5 3 7 14 19 16 11 18 42 58 77 87
8 9 11 12 20 28 11 4 2 6 15 5 9 12 14 15 16 14 9 5 7 16 3 16 3 10 9 9 5 17 16 8 5 14 9 8 7 11 18 17 6 16 47 62 77
4 6 16 11 18 13 7 4 7 26 25 14 11 9 8 9 6 10 10 8 15 14 8 10 6 8 5 12 19 5 5 9 10 9 11 3 12 14 16 10 11 16 37 59 68
5 6 17 8 10 6 4 4 17 16 37 15 7 9 7 9 9 12 8 8 36 13 2 3 10 11 14 4 5 15 18 13 10 8 2 7 13 7 16 10 19 26 40 48 58
7 3 22 7 5 5 5 9 7 16 13 13 12 10 8 10 9 8 10 9 44 16 9 6 1 4 14 12 6 7 9 11 10 7 14 12 11 8 15 11 16 12 16 40 49
6 5 11 17 10 6 5 6 11 14 7 8 8 7 8 9 4 11 12 9 40 19 26 2 5 13 15 15 10 7 10 11 14 10 10 12 16 9 5 7 14 18 21 33 49
9 4 5 5 12 8 6 4 8 12 7 21 8 7 6 7 9 6 7 14 11 23 23 9 3 8 13 12 6 7 4 14 12 11 18 14 19 17 9 4 4 34 29 32 34
8 7 6 7 4 5 8 2 1 7 3 5 1 6 6 7 7 8 8 4 8 14 16 14 2 5 4 3 9 11 11 14 12 5 7 7 12 3 21 26 20 18 23 35 32
11 9 5 13 7 5 4 4 3 3 4 5 6 3 8 10 17 39 43 38 31 8 9 11 7 7 7 8 9 5 5 12 14 11 7 6 7 7 21 26 23 24 26 21 26
Wind_Direction_500mb
11 8 4 358 350 340 331 320 307 299 295 289 288 288 292 288 290 292 308 307 137 159 156 139 167 157 166 93 47 49 47 3 344 85 117 60 128 33 93 133 44 143 153 154 157
6 4 1 358 354 346 336 325 316 305 294 287 281 281 287 287 287 283 280 258 209 191 162 156 123 179 165 199 197 87 156 193 219 136 116 74 64 165 112 60 74 108 142 152 156
2 359 356 355 351 346 340 329 316 309 301 292 281 273 275 282 300 268 257 252 215 179 151 164 172 178 191 189 189 176 199 145 179 142 108 99 49 46 125 68 166 145 153 158 164
359 355 352 350 347 345 340 331 320 306 301 297 285 272 264 255 200 160 107 172 168 171 173 169 170 164 244 202 192 188 213 168 168 163 127 123 93 64 51 20 157 160 158 163 169
355 352 348 345 344 342 341 333 319 307 295 295 292 273 255 233 232 198 196 93 170 184 185 176 179 197 244 257 176 208 124 120 164 162 146 121 111 120 63 78 164 169 169 172 171
350 347 345 343 340 339 339 332 316 305 292 287 290 278 240 227 234 226 238 240 225 199 198 192 217 241 292 23 121 140 102 116 119 119 117 111 142 11 149 127 168 177 179 181 181
347 344 341 340 338 338 337 328 313 300 287 274 283 282 250 238 236 229 228 230 222 208 210 208 224 254 331 60 127 123 101 85 73 120 107 112 27 232 180 166 161 180 186 188 189
347 345 341 339 338 340 339 328 316 302 277 264 278 278 256 248 235 223 213 208 205 206 205 214 181 229 241 130 163 46 49 98 195 183 154 145 247 206 186 176 183 181 188 192 193
342 342 342 339 340 346 349 338 342 327 277 266 274 258 258 245 247 228 226 212 205 220 216 160 130 199 113 143 26 18 227 135 201 189 153 168 256 170 187 192 206 185 189 194 197
340 340 340 340 342 353 354 351 12 40 50 272 245 280 250 236 272 217 221 222 208 196 179 186 173 109 68 127 206 178 139 183 229 200 171 203 239 167 186 197 206 194 192 194 203
334 336 340 340 342 360 10 356 357 323 310 256 268 264 280 285 294 254 214 215 207 205 150 190 119 175 193 188 147 146 163 202 222 167 143 222 258 180 191 194 202 212 199 202 209
334 333 337 338 342 8 33 64 31 313 298 287 278 259 258 266 297 265 200 178 165 174 135 64 193 210 152 179 168 184 188 354 94 153 157 207 261 173 193 202 199 201 201 204 213
340 336 340 338 340 354 42 20 356 342 285 301 280 269 262 241 228 253 208 184 139 154 170 162 216 150 152 169 161 243 162 193 209 144 265 132 294 198 207 208 214 210 209 208 214
343 342 347 346 347 340 224 338 333 335 41 283 324 339 287 211 244 225 201 180 148 178 153 198 207 165 147 178 149 233 184 206 130 120 231 212 275 237 200 207 215 216 210 215 218
345 345 346 341 327 331 318 327 307 331 353 325 326 22 294 203 312 212 205 211 165 159 132 220 166 176 168 175 157 225 165 182 143 126 46 199 105 267 167 212 222 219 219 215 218
348 343 347 349 343 58 337 340 13 45 268 327 321 353 317 244 277 73 157 170 141 98 59 187 185 159 191 173 169 172 95 50 53 90 334 227 173 253 194 207 212 223 219 210 212
356 6 17 10 19 319 332 344 43 112 333 320 308 345 294 316 298 346 152 142 147 115 126 36 215 266 148 143 93 100 83 359 1 30 221 263 167 246 225 213 198 196 207 207 206
15 47 35 39 34 4 339 50 84 287 269 294 326 326 29 3 14 351 48 106 68 86 115 144 248 167 189 183 159 176 153 158 178 196 251 100 238 251 218 232 219 216 205 201 202
25 53 36 33 18 3 355 56 144 325 335 312 326 37 344 352 7 55 73 192 203 171 150 140 260 260 206 155 142 188 157 180 104 26 64 232 291 302 281 223 218 199 185 192 203
31 79 29 356 344 346 68 7 313 248 320 298 21 28 15 336 20 24 11 328 340 199 105 210 187 206 212 126 76 159 169 102 359 164 205 277 267 241 305 298 328 190 180 188 197
21 105 11 342 348 20 92 251 321 356 20 26 2 18 345 356 299 333 315 14 18 328 148 137 105 273 144 200 177 91 164 65 126 141 166 215 262 222 265 286 209 197 187 180 191
38 54 2 316 33 50 68 356 5 343 10 22 61 34 358 334 320 352 328 351 6 306 268 194 142 205 200 294 240 163 179 159 134 223 212 165 261 332 285 310 187 178 181 193 203
45 60 31 122 89 9 337 359 49 15 5 13 12 11 6 347 340 26 328 317 7 18 336 206 315 69 350 357 349 170 177 137 117 86 193 158 261 337 49 54 82 155 177 163 183
20 22 28 58 53 114 108 11 357 24 55 51 14 47 355 346 352 312 330 310 338 356 348 34 130 154 190 204 161 188 185 173 143 142 189 216 256 283 312 142 107 127 127 134 147
50 53 12 342 15 48 79 46 4 2 35 24 30 39 16 310 314 328 333 314 328 4 353 63 208 184 228 220 178 102 77 161 170 189 179 217 211 247 196 190 133 142 142 137 142
53 48 30 23 3 41 12 6 329 307 245 345 20 294 229 250 235 290 4 282 277 333 1 349 349 340 317 123 140 107 29 81 49 6 294 288 231 267 108 105 62 52 122 126 130
36 40 59 6 11 61 269 264 266 311 284 296 287 318 273 248 254 282 270 250 258 323 314 349 1 47 261 53 112 49 39 101 98 39 335 212 317 145 108 86 51 50 60 61 87
Wind_Speed_850mb
29 29 28 27 27 25 25 24 23 22 20 19 19 21 21 22 22 24 22 3 7 19 17 26 10 11 10 3 7 16 8 6 6 4 9 9 6 5 13 29 6 5 46 55 54
29 28 29 29 29 28 27 26 26 24 23 20 20 21 21 23 23 25 19 14 10 9 22 29 8 20 6 4 6 5 6 11 5 9 7 32 13 1 13 11 21 46 57 55 52
31 30 30 30 29 29 29 28 26 26 24 21 20 20 19 19 19 6 12 15 15 13 15 24 14 16 6 10 14 11 8 8 10 15 16 18 33 13 28 11 9 53 63 60 53
34 33 33 33 33 33 33 30 27 25 24 21 19 19 17 12 9 13 9 7 23 26 23 28 22 11 7 8 17 9 13 17 24 22 16 16 15 13 16 6 19 55 62 62 56
36 35 35 36 36 37 37 32 27 25 23 21 19 16 14 14 20 17 7 12 21 30 24 22 26 11 7 6 11 4 9 14 20 22 19 28 22 19 5 13 25 52 59 59 56
37 36 36 37 38 41 40 35 29 24 22 20 18 15 14 11 26 30 26 19 12 28 29 25 14 13 15 3 2 8 23 23 20 20 18 15 8 2 10 22 41 57 59 59 54
39 37 36 37 38 41 42 36 28 24 21 19 18 17 23 41 21 30 32 24 21 24 23 19 15 17 5 6 22 24 12 10 6 10 8 31 3 10 27 31 43 59 61 63 59
41 41 38 37 39 42 39 32 28 23 16 15 16 16 20 20 51 39 32 30 32 30 20 13 6 8 9 19 6 5 8 7 5 8 12 9 9 21 32 42 41 48 61 65 64
43 42 40 37 38 40 29 30 19 12 5 8 11 10 17 17 30 40 40 39 37 28 20 18 2 9 11 10 6 10 4 4 4 14 12 8 8 13 42 31 30 53 58 65 66
45 42 39 35 34 30 28 14 13 9 7 5 11 11 17 2 5 14 34 40 28 13 17 16 11 7 5 6 9 8 6 2 7 9 9 13 11 10 39 35 36 50 50 59 69
46 42 38 34 30 20 22 6 10 3 22 18 21 28 43 28 24 13 17 31 35 13 11 12 9 12 19 12 6 8 8 6 4 8 8 14 6 20 37 33 33 41 53 57 68
43 40 36 32 24 12 19 16 19 18 23 39 49 51 52 45 18 11 21 23 21 12 11 9 11 18 14 10 7 7 3 2 2 8 6 6 12 8 28 41 47 49 50 59 67
45 39 32 27 15 6 7 19 25 24 8 21 14 20 22 28 27 31 18 20 10 14 14 15 13 13 13 9 9 4 6 5 4 7 3 10 10 11 14 30 43 53 62 56 64
40 38 33 21 5 11 2 14 20 23 10 14 7 5 5 15 12 44 24 23 4 22 17 11 11 12 13 9 12 7 14 6 14 6 3 2 7 11 16 31 25 49 67 63 61
40 39 31 20 12 3 6 15 17 7 8 20 5 11 6 13 13 22 43 15 15 13 14 16 16 14 8 13 13 13 13 10 8 7 4 5 4 11 19 21 39 51 68 78 70
35 33 26 16 9 2 7 15 1 11 8 15 11 10 7 15 9 3 12 12 10 10 6 14 5 11 20 9 13 5 8 13 10 7 4 11 9 9 12 28 27 40 53 72 74
31 24 21 16 5 7 11 5 10 8 11 18 10 15 4 7 4 6 10 11 12 11 5 4 3 3 5 11 5 10 12 4 5 3 11 6 5 20 8 12 21 42 60 72 76
22 19 27 24 18 14 10 10 7 4 10 10 11 13 12 15 7 12 6 6 7 12 7 12 7 14 6 12 15 13 17 11 11 7 7 7 12 12 18 29 45 52 74 75 83
12 12 20 18 17 22 8 9 3 8 9 14 18 12 14 12 6 7 4 7 12 15 14 11 11 7 9 9 19 9 8 14 12 5 3 7 14 19 16 11 18 42 58 77 87
8 9 11 12 20 28 11 4 2 6 15 5 9 12 14 15 16 14 9 5 7 16 3 16 3 10 9 9 5 17 16 8 5 14 9 8 7 11 18 17 6 16 47 62 77
4 6 16 11 18 13 7 4 7 26 25 14 11 9 8 9 6 10 10 8 15 14 8 10 6 8 5 12 19 5 5 9 10 9 11 3 12 14 16 10 11 16 37 59 68
5 6 17 8 10 6 4 4 17 16 37 15 7 9 7 9 9 12 8 8 36 13 2 3 10 11 14 4 5 15 18 13 10 8 2 7 13 7 16 10 19 26 40 48 58
7 3 22 7 5 5 5 9 7 16 13 13 12 10 8 10 9 8 10 9 44 16 9 6 1 4 14 12 6 7 9 11 10 7 14 12 11 8 15 11 16 12 16 40 49
6 5 11 17 10 6 5 6 11 14 7 8 8 7 8 9 4 11 12 9 40 19 26 2 5 13 15 15 10 7 10 11 14 10 10 12 16 9 5 7 14 18 21 33 49
9 4 5 5 12 8 6 4 8 12 7 21 8 7 6 7 9 6 7 14 11 23 23 9 3 8 13 12 6 7 4 14 12 11 18 14 19 17 9 4 4 34 29 32 34
8 7 6 7 4 5 8 2 1 7 3 5 1 6 6 7 7 8 8 4 8 14 16 14 2 5 4 3 9 11 11 14 12 5 7 7 12 3 21 26 20 18 23 35 32
11 9 5 13 7 5 4 4 3 3 4 5 6 3 8 10 17 39 43 38 31 8 9 11 7 7 7 8 9 5 5 12 14 11 7 6 7 7 21 26 23 24 26 21 26
Wind_Direction_850mb
11 8 4 358 350 340 331 320 307 299 295 289 288 288 292 288 290 292 308 307 137 159 156 139 167 157 166 93 47 49 47 3 344 85 117 60 128 33 93 133 44 143 153 154 157
6 4 1 358 354 346 336 325 316 305 294 287 281 281 287 287 287 283 280 258 209 191 162 156 123 179 165 199 197 87 156 193 219 136 116 74 64 165 112 60 74 108 142 152 156
2 359 356 355 351 346 340 329 316 309 301 292 281 273 275 282 300 268 257 252 215 179 151 164 172 178 191 189 189 176 199 145 179 142 108 99 49 46 125 68 166 145 153 158 164
359 355 352 350 347 345 340 331 320 306 301 297 285 272 264 255 200 160 107 172 168 171 173 169 170 164 244 202 192 188 213 168 168 163 127 123 93 64 51 20 157 160 158 163 169
355 352 348 345 344 342 341 333 319 307 295 295 292 273 255 233 232 198 196 93 170 184 185 176 179 197 244 257 176 208 124 120 164 162 146 121 111 120 63 78 164 169 169 172 171
350 347 345 343 340 339 339 332 316 305 292 287 290 278 240 227 234 226 238 240 225 199 198 192 217 241 292 23 121 140 102 116 119 119 117 111 142 11 149 127 168 177 179 181 181
347 344 341 340 338 338 337 328 313 300 287 274 283 282 250 238 236 229 228 230 222 208 210 208 224 254 331 60 127 123 101 85 73 120 107 112 27 232 180 166 161 180 186 188 189
347 345 341 339 338 340 339 328 316 302 277 264 278 278 256 248 235 223 213 208 205 206 205 214 181 229 241 130 163 46 49 98 195 183 154 145 247 206 186 176 183 181 188 192 193
342 342 342 339 340 346 349 338 342 327 277 266 274 258 258 245 247 228 226 212 205 220 216 160 130 199 113 143 26 18 227 135 201 189 153 168 256 170 187 192 206 185 189 194 197
340 340 340 340 342 353 354 351 12 40 50 272 245 280 250 236 272 217 221 222 208 196 179 186 173 109 68 127 206 178 139 183 229 200 171 203 239 167 186 197 206 194 192 194 203
334 336 340 340 342 360 10 356 357 323 310 256 268 264 280 285 294 254 214 215 207 205 150 190 119 175 193 188 147 146 163 202 222 167 143 222 258 180 191 194 202 212 199 202 209
334 333 337 338 342 8 33 64 31 313 298 287 278 259 258 266 297 265 200 178 165 174 135 64 193 210 152 179 168 184 188 354 94 153 157 207 261 173 193 202 199 201 201 204 213
340 336 340 338 340 354 42 20 356 342 285 301 280 269 262 241 228 253 208 184 139 154 170 162 216 150 152 169 161 243 162 193 209 144 265 132 294 198 207 208 214 210 209 208 214
343 342 347 346 347 340 224 338 333 335 41 283 324 339 287 211 244 225 201 180 148 178 153 198 207 165 147 178 149 233 184 206 130 120 231 212 275 237 200 207 215 216 210 215 218
345 345 346 341 327 331 318 327 307 331 353 325 326 22 294 203 312 212 205 211 165 159 132 220 166 176 168 175 157 225 165 182 143 126 46 199 105 267 167 212 222 219 219 215 218
348 343 347 349 343 58 337 340 13 45 268 327 321 353 317 244 277 73 157 170 141 98 59 187 185 159 191 173 169 172 95 50 53 90 334 227 173 253 194 207 212 223 219 210 212
356 6 17 10 19 319 332 344 43 112 333 320 308 345 294 316 298 346 152 142 147 115 126 36 215 266 148 143 93 100 83 359 1 30 221 263 167 246 225 213 198 196 207 207 206
15 47 35 39 34 4 339 50 84 287 269 294 326 326 29 3 14 351 48 106 68 86 115 144 248 167 189 183 159 176 153 158 178 196 251 100 238 251 218 232 219 216 205 201 202
25 53 36 33 18 3 355 56 144 325 335 312 326 37 344 352 7 55 73 192 203 171 150 140 260 260 206 155 142 188 157 180 104 26 64 232 291 302 281 223 218 199 185 192 203
31 79 29 356 344 346 68 7 313 248 320 298 21 28 15 336 20 24 11 328 340 199 105 210 187 206 212 126 76 159 169 102 359 164 205 277 267 241 305 298 328 190 180 188 197
21 105 11 342 348 20 92 251 321 356 20 26 2 18 345 356 299 333 315 14 18 328 148 137 105 273 144 200 177 91 164 65 126 141 166 215 262 222 265 286 209 197 187 180 191
38 54 2 316 33 50 68 356 5 343 10 22 61 34 358 334 320 352 328 351 6 306 268 194 142 205 200 294 240 163 179 159 134 223 212 165 261 332 285 310 187 178 181 193 203
45 60 31 122 89 9 337 359 49 15 5 13 12 11 6 347 340 26 328 317 7 18 336 206 315 69 350 357 349 170 177 137 117 86 193 158 261 337 49 54 82 155 177 163 183
20 22 28 58 53 114 108 11 357 24 55 51 14 47 355 346 352 312 330 310 338 356 348 34 130 154 190 204 161 188 185 173 143 142 189 216 256 283 312 142 107 127 127 134 147
50 53 12 342 15 48 79 46 4 2 35 24 30 39 16 310 314 328 333 314 328 4 353 63 208 184 228 220 178 102 77 161 170 189 179 217 211 247 196 190 133 142 142 137 142
53 48 30 23 3 41 12 6 329 307 245 345 20 294 229 250 235 290 4 282 277 333 1 349 349 340 317 123 140 107 29 81 49 6 294 288 231 267 108 105 62 52 122 126 130
36 40 59 6 11 61 269 264 266 311 284 296 287 318 273 248 254 282 270 250 258 323 314 349 1 47 261 53 112 49 39 101 98 39 335 212 317 145 108 86 51 50 60 61 87